Time,TemperatureF,DewpointF,PressureIn,WindDirection,WindDirectionDegrees,WindSpeedMPH,WindSpeedGustMPH,Humidity,HourlyPrecipIn,Conditions,Clouds,dailyrainin,SoftwareType,DateUTC
2013-03-05 00:02:00,23.0,-99.9,-100.00,ESE,107,12.0,-999.0,-999,-99.99,,,-99.99,,2013-03-05 06:02:00,
2013-03-05 00:11:00,23.0,-99.9,-100.00,ESE,103,10.0,-999.0,-999,-99.99,,,-99.99,,2013-03-05 06:11:00,
2013-03-05 00:22:00,23.0,-99.9,-100.00,ENE,78,10.0,-999.0,-999,-99.99,,,-99.99,,2013-03-05 06:22:00,
2013-03-05 00:32:00,23.0,-99.9,-100.00,ENE,76,11.0,-999.0,-999,-99.99,,,-99.99,,2013-03-05 06:32:00,
2013-03-05 00:42:00,23.0,-99.9,-100.00,ENE,76,11.0,-999.0,-999,-99.99,,,-99.99,,2013-03-05 06:42:00,
2013-03-05 00:52:00,23.0,-99.9,-100.00,East,96,10.0,-999.0,-999,-99.99,,,-99.99,,2013-03-05 06:52:00,
2013-03-05 01:01:00,23.0,-99.9,-100.00,East,96,10.0,-999.0,-999,-99.99,,,-99.99,,2013-03-05 07:01:00,
2013-03-05 01:11:00,23.0,-99.9,-100.00,ENE,78,12.0,-999.0,-999,-99.99,,,-99.99,,2013-03-05 07:11:00,
2013-03-05 01:22:00,22.0,-99.9,-100.00,East,79,9.0,-999.0,-999,-99.99,,,-99.99,,2013-03-05 07:22:00,
2013-03-05 01:32:00,22.0,-99.9,-100.00,East,79,12.0,-999.0,-999,-99.99,,,-99.99,,2013-03-05 07:32:00,
2013-03-05 01:42:00,22.0,-99.9,-100.00,East,79,12.0,-999.0,-999,-99.99,,,-99.99,,2013-03-05 07:42:00,
2013-03-05 01:51:00,22.0,21.0,-100.00,East,79,7.0,-999.0,98,-99.99,,,-99.99,,2013-03-05 07:51:00,
2013-03-05 02:02:00,22.0,21.0,-100.00,East,79,7.0,-999.0,98,-99.99,,,-99.99,,2013-03-05 08:02:00,
2013-03-05 02:11:00,22.0,-99.9,-100.00,East,79,9.0,-999.0,-999,-99.99,,,-99.99,,2013-03-05 08:11:00,
2013-03-05 02:22:00,22.0,-99.9,-100.00,ENE,67,8.0,-999.0,-999,-99.99,,,-99.99,,2013-03-05 08:22:00,
2013-03-05 02:32:00,22.0,-99.9,-100.00,ENE,67,8.0,-999.0,-999,-99.99,,,-99.99,,2013-03-05 08:32:00,
2013-03-05 02:42:00,21.0,-99.9,-100.00,ENE,59,8.0,-999.0,-999,-99.99,,,-99.99,,2013-03-05 08:42:00,
2013-03-05 02:52:00,22.0,-99.9,-100.00,NNE,31,6.0,-999.0,-999,-99.99,,,-99.99,,2013-03-05 08:52:00,
2013-03-05 03:02:00,22.0,-99.9,-100.00,NNE,12,7.0,-999.0,-999,-99.99,,,-99.99,,2013-03-05 09:02:00,
2013-03-05 03:11:00,21.0,-99.9,-100.00,North,3,11.0,-999.0,-999,-99.99,,,-99.99,,2013-03-05 09:11:00,
2013-03-05 03:22:00,21.0,-99.9,-100.00,North,3,11.0,-999.0,-999,-99.99,,,-99.99,,2013-03-05 09:22:00,
2013-03-05 03:32:00,21.0,-99.9,-100.00,North,3,11.0,-999.0,-999,-99.99,,,-99.99,,2013-03-05 09:32:00,
2013-03-05 03:43:00,21.0,-99.9,-100.00,North,1,11.0,-999.0,-999,-99.99,,,-99.99,,2013-03-05 09:43:00,
2013-03-05 03:52:00,21.0,-99.9,-100.00,ESE,116,12.0,-999.0,-999,-99.99,,,-99.99,,2013-03-05 09:52:00,
2013-03-05 04:02:00,21.0,-99.9,-100.00,North,2,14.0,-999.0,-999,-99.99,,,-99.99,,2013-03-05 10:02:00,
2013-03-05 04:12:00,21.0,-99.9,-100.00,East,86,15.0,-999.0,-999,-99.99,,,-99.99,,2013-03-05 10:12:00,
2013-03-05 04:22:00,21.0,-99.9,-100.00,North,2,15.0,-999.0,-999,-99.99,,,-99.99,,2013-03-05 10:22:00,
2013-03-05 04:32:00,21.0,-99.9,-100.00,North,1,18.0,-999.0,-999,-99.99,,,-99.99,,2013-03-05 10:32:00,
2013-03-05 04:42:00,21.0,-99.9,-100.00,East,94,18.0,-999.0,-999,-99.99,,,-99.99,,2013-03-05 10:42:00,
2013-03-05 04:52:00,21.0,-99.9,-100.00,North,0,21.0,-999.0,-999,-99.99,,,-99.99,,2013-03-05 10:52:00,
2013-03-05 05:02:00,21.0,-99.9,-100.00,North,0,21.0,-999.0,-999,-99.99,,,-99.99,,2013-03-05 11:02:00,
2013-03-05 05:12:00,21.0,-99.9,-100.00,South,172,22.0,-999.0,-999,-99.99,,,-99.99,,2013-03-05 11:12:00,
2013-03-05 05:22:00,21.0,-99.9,-100.00,WSW,258,19.0,-999.0,-999,-99.99,,,-99.99,,2013-03-05 11:22:00,
2013-03-05 05:32:00,21.0,-99.9,-100.00,East,86,18.0,-999.0,-999,-99.99,,,-99.99,,2013-03-05 11:32:00,
2013-03-05 05:42:00,21.0,-99.9,-100.00,NNW,345,19.0,-999.0,-999,-99.99,,,-99.99,,2013-03-05 11:42:00,
2013-03-05 05:52:00,21.0,-99.9,-100.00,NNW,345,16.0,-999.0,-999,-99.99,,,-99.99,,2013-03-05 11:52:00,
2013-03-05 06:03:00,21.0,-99.9,-100.00,North,1,17.0,-999.0,-999,-99.99,,,-99.99,,2013-03-05 12:03:00,
2013-03-05 06:12:00,21.0,-99.9,-100.00,NNW,345,17.0,-999.0,-999,-99.99,,,-99.99,,2013-03-05 12:12:00,
2013-03-05 06:22:00,21.0,-99.9,-100.00,NNW,345,16.0,-999.0,-999,-99.99,,,-99.99,,2013-03-05 12:22:00,
2013-03-05 06:32:00,21.0,-99.9,-100.00,NNW,345,18.0,-999.0,-999,-99.99,,,-99.99,,2013-03-05 12:32:00,
2013-03-05 06:42:00,21.0,-99.9,-100.00,NNW,345,18.0,-999.0,-999,-99.99,,,-99.99,,2013-03-05 12:42:00,
2013-03-05 06:53:00,21.0,-99.9,-100.00,NNW,345,17.0,-999.0,-999,-99.99,,,-99.99,,2013-03-05 12:53:00,
2013-03-05 07:02:00,21.0,-99.9,-100.00,NNW,345,16.0,-999.0,-999,-99.99,,,-99.99,,2013-03-05 13:02:00,
2013-03-05 07:12:00,21.0,-99.9,-100.00,NNW,345,17.0,-999.0,-999,-99.99,,,-99.99,,2013-03-05 13:12:00,
2013-03-05 07:22:00,21.0,-99.9,-100.00,NNW,344,15.0,-999.0,-999,-99.99,,,-99.99,,2013-03-05 13:22:00,
2013-03-05 07:32:00,21.0,-99.9,-100.00,NNW,341,15.0,-999.0,-999,-99.99,,,-99.99,,2013-03-05 13:32:00,
2013-03-05 07:42:00,21.0,-99.9,-100.00,NNW,338,17.0,-999.0,-999,-99.99,,,-99.99,,2013-03-05 13:42:00,
2013-03-05 07:52:00,21.0,-99.9,-100.00,NNW,339,15.0,-999.0,-999,-99.99,,,-99.99,,2013-03-05 13:52:00,
2013-03-05 08:03:00,21.0,-99.9,-100.00,NNW,333,16.0,-999.0,-999,-99.99,,,-99.99,,2013-03-05 14:03:00,
2013-03-05 08:11:00,21.0,-99.9,-100.00,NNW,338,17.0,-999.0,-999,-99.99,,,-99.99,,2013-03-05 14:11:00,
2013-03-05 08:22:00,21.0,-99.9,-100.00,NNW,340,16.0,-999.0,-999,-99.99,,,-99.99,,2013-03-05 14:22:00,
2013-03-05 08:32:00,21.0,-99.9,-100.00,NNW,334,17.0,-999.0,-999,-99.99,,,-99.99,,2013-03-05 14:32:00,
2013-03-05 08:42:00,21.0,-99.9,-100.00,NNW,332,17.0,-999.0,-999,-99.99,,,-99.99,,2013-03-05 14:42:00,
2013-03-05 08:52:00,21.0,-99.9,-100.00,NNW,338,20.0,-999.0,-999,-99.99,,,-99.99,,2013-03-05 14:52:00,
2013-03-05 09:02:00,21.0,-99.9,-100.00,NNW,333,23.0,-999.0,-999,-99.99,,,-99.99,,2013-03-05 15:02:00,
2013-03-05 09:11:00,21.0,-99.9,-100.00,NNW,339,21.0,-999.0,-999,-99.99,,,-99.99,,2013-03-05 15:11:00,
2013-03-05 09:22:00,21.0,-99.9,-100.00,NNW,336,21.0,-999.0,-999,-99.99,,,-99.99,,2013-03-05 15:22:00,
2013-03-05 09:32:00,21.0,20.0,-100.00,NNW,337,24.0,-999.0,98,-99.99,,,-99.99,,2013-03-05 15:32:00,
2013-03-05 09:42:00,21.0,20.0,-100.00,NNW,336,20.0,-999.0,98,-99.99,,,-99.99,,2013-03-05 15:42:00,
2013-03-05 09:52:00,21.0,20.0,-100.00,NNW,337,19.0,-999.0,97,-99.99,,,-99.99,,2013-03-05 15:52:00,
2013-03-05 10:01:00,21.0,20.0,-100.00,NNW,335,24.0,-999.0,97,-99.99,,,-99.99,,2013-03-05 16:01:00,
2013-03-05 10:11:00,21.0,20.0,-100.00,NNW,338,24.0,-999.0,96,-99.99,,,-99.99,,2013-03-05 16:11:00,
2013-03-05 10:21:00,21.0,20.0,-100.00,NNW,339,23.0,-999.0,95,-99.99,,,-99.99,,2013-03-05 16:21:00,
2013-03-05 10:32:00,21.0,20.0,-100.00,NNW,338,30.0,-999.0,94,-99.99,,,-99.99,,2013-03-05 16:32:00,
2013-03-05 10:42:00,21.0,20.0,-100.00,NNW,338,30.0,-999.0,94,-99.99,,,-99.99,,2013-03-05 16:42:00,
2013-03-05 10:51:00,21.0,20.0,-100.00,NNW,343,29.0,-999.0,94,-99.99,,,-99.99,,2013-03-05 16:51:00,
2013-03-05 11:01:00,21.0,20.0,-100.00,NNW,338,31.0,-999.0,94,-99.99,,,-99.99,,2013-03-05 17:01:00,
2013-03-05 11:11:00,21.0,20.0,-100.00,NNW,343,35.0,-999.0,94,-99.99,,,-99.99,,2013-03-05 17:11:00,
2013-03-05 11:21:00,21.0,19.0,-100.00,NNW,344,25.0,-999.0,93,-99.99,,,-99.99,,2013-03-05 17:21:00,
2013-03-05 11:32:00,21.0,19.0,-100.00,NNW,336,23.0,-999.0,92,-99.99,,,-99.99,,2013-03-05 17:32:00,
2013-03-05 11:42:00,21.0,19.0,-100.00,NNW,338,28.0,-999.0,91,-99.99,,,-99.99,,2013-03-05 17:42:00,
2013-03-05 11:52:00,21.0,19.0,-100.00,NNW,344,28.0,-999.0,91,-99.99,,,-99.99,,2013-03-05 17:52:00,
2013-03-05 12:02:00,21.0,19.0,-100.00,NNW,344,30.0,-999.0,91,-99.99,,,-99.99,,2013-03-05 18:02:00,
2013-03-05 12:11:00,21.0,19.0,-100.00,NNW,339,24.0,-999.0,92,-99.99,,,-99.99,,2013-03-05 18:11:00,
2013-03-05 12:22:00,21.0,18.0,-100.00,NNW,341,25.0,-999.0,90,-99.99,,,-99.99,,2013-03-05 18:22:00,
2013-03-05 12:32:00,21.0,19.0,-100.00,NNW,335,20.0,-999.0,91,-99.99,,,-99.99,,2013-03-05 18:32:00,
2013-03-05 12:42:00,21.0,18.0,-100.00,NNW,340,23.0,-999.0,90,-99.99,,,-99.99,,2013-03-05 18:42:00,
2013-03-05 12:52:00,21.0,19.0,-100.00,NNW,336,21.0,-999.0,90,-99.99,,,-99.99,,2013-03-05 18:52:00,
2013-03-05 13:01:00,21.0,19.0,-100.00,NNW,340,21.0,-999.0,90,-99.99,,,-99.99,,2013-03-05 19:01:00,
2013-03-05 13:11:00,21.0,18.0,-100.00,NNW,331,29.0,-999.0,90,-99.99,,,-99.99,,2013-03-05 19:11:00,
2013-03-05 13:21:00,21.0,18.0,-100.00,NNW,338,27.0,-999.0,90,-99.99,,,-99.99,,2013-03-05 19:21:00,
2013-03-05 13:32:00,21.0,18.0,-100.00,NNW,344,27.0,-999.0,89,-99.99,,,-99.99,,2013-03-05 19:32:00,
2013-03-05 13:42:00,22.0,19.0,-100.00,NNW,340,23.0,-999.0,89,-99.99,,,-99.99,,2013-03-05 19:42:00,
2013-03-05 13:52:00,21.0,19.0,-100.00,NNW,342,26.0,-999.0,89,-99.99,,,-99.99,,2013-03-05 19:52:00,
2013-03-05 14:01:00,22.0,19.0,-100.00,NNW,337,28.0,-999.0,88,-99.99,,,-99.99,,2013-03-05 20:01:00,
2013-03-05 14:11:00,22.0,18.0,-100.00,NNW,338,22.0,-999.0,87,-99.99,,,-99.99,,2013-03-05 20:11:00,
2013-03-05 14:21:00,21.0,18.0,-100.00,NNW,334,29.0,-999.0,87,-99.99,,,-99.99,,2013-03-05 20:21:00,
2013-03-05 14:32:00,22.0,18.0,-100.00,NNW,339,29.0,-999.0,86,-99.99,,,-99.99,,2013-03-05 20:32:00,
2013-03-05 14:42:00,21.0,18.0,-100.00,NNW,343,31.0,-999.0,87,-99.99,,,-99.99,,2013-03-05 20:42:00,
2013-03-05 14:52:00,21.0,18.0,-100.00,NNW,341,29.0,-999.0,87,-99.99,,,-99.99,,2013-03-05 20:52:00,
2013-03-05 15:02:00,21.0,18.0,-100.00,NNW,345,23.0,-999.0,86,-99.99,,,-99.99,,2013-03-05 21:02:00,
2013-03-05 15:11:00,21.0,18.0,-100.00,NNW,337,23.0,-999.0,88,-99.99,,,-99.99,,2013-03-05 21:11:00,
2013-03-05 15:21:00,22.0,18.0,-100.00,NNW,344,23.0,-999.0,86,-99.99,,,-99.99,,2013-03-05 21:21:00,
2013-03-05 15:32:00,22.0,18.0,-100.00,NNW,337,25.0,-999.0,85,-99.99,,,-99.99,,2013-03-05 21:32:00,
2013-03-05 15:42:00,21.0,18.0,-100.00,NNW,343,24.0,-999.0,86,-99.99,,,-99.99,,2013-03-05 21:42:00,
2013-03-05 15:52:00,21.0,18.0,-100.00,NNW,336,26.0,-999.0,86,-99.99,,,-99.99,,2013-03-05 21:52:00,
2013-03-05 16:01:00,21.0,18.0,-100.00,NNW,343,24.0,-999.0,86,-99.99,,,-99.99,,2013-03-05 22:01:00,
2013-03-05 16:11:00,21.0,17.0,-100.00,NNW,342,28.0,-999.0,85,-99.99,,,-99.99,,2013-03-05 22:11:00,
2013-03-05 16:22:00,21.0,17.0,-100.00,NNW,344,23.0,-999.0,86,-99.99,,,-99.99,,2013-03-05 22:22:00,
2013-03-05 16:32:00,20.0,18.0,-100.00,NNW,345,29.0,-999.0,88,-99.99,,,-99.99,,2013-03-05 22:32:00,
2013-03-05 16:42:00,20.0,18.0,-100.00,NNW,344,28.0,-999.0,89,-99.99,,,-99.99,,2013-03-05 22:42:00,
2013-03-05 16:52:00,20.0,17.0,-100.00,NNW,345,29.0,-999.0,89,-99.99,,,-99.99,,2013-03-05 22:52:00,
2013-03-05 17:01:00,20.0,17.0,-100.00,NNW,344,20.0,-999.0,88,-99.99,,,-99.99,,2013-03-05 23:01:00,
2013-03-05 17:11:00,20.0,17.0,-100.00,NNW,345,23.0,-999.0,88,-99.99,,,-99.99,,2013-03-05 23:11:00,
2013-03-05 17:21:00,20.0,17.0,-100.00,NNW,343,23.0,-999.0,88,-99.99,,,-99.99,,2013-03-05 23:21:00,
2013-03-05 17:32:00,20.0,17.0,-100.00,NNW,341,20.0,-999.0,87,-99.99,,,-99.99,,2013-03-05 23:32:00,
2013-03-05 17:42:00,20.0,17.0,-100.00,NNW,338,23.0,-999.0,87,-99.99,,,-99.99,,2013-03-05 23:42:00,
2013-03-05 17:52:00,20.0,16.0,-100.00,NNW,344,26.0,-999.0,86,-99.99,,,-99.99,,2013-03-05 23:52:00,
2013-03-05 18:01:00,20.0,16.0,-100.00,NNW,344,26.0,-999.0,86,-99.99,,,-99.99,,2013-03-06 00:01:00,
2013-03-05 18:11:00,19.0,16.0,-100.00,NNW,343,28.0,-999.0,86,-99.99,,,-99.99,,2013-03-06 00:11:00,
2013-03-05 18:21:00,19.0,16.0,-100.00,NNW,336,22.0,-999.0,86,-99.99,,,-99.99,,2013-03-06 00:21:00,
2013-03-05 18:32:00,19.0,16.0,-100.00,NNW,339,24.0,-999.0,86,-99.99,,,-99.99,,2013-03-06 00:32:00,
2013-03-05 18:42:00,19.0,16.0,-100.00,NNW,340,19.0,-999.0,86,-99.99,,,-99.99,,2013-03-06 00:42:00,
2013-03-05 18:52:00,19.0,15.0,-100.00,NNW,345,21.0,-999.0,86,-99.99,,,-99.99,,2013-03-06 00:52:00,
2013-03-05 19:02:00,19.0,16.0,-100.00,NNW,342,20.0,-999.0,87,-99.99,,,-99.99,,2013-03-06 01:02:00,
2013-03-05 19:11:00,18.0,15.0,-100.00,NNW,335,24.0,-999.0,86,-99.99,,,-99.99,,2013-03-06 01:11:00,
2013-03-05 19:21:00,18.0,15.0,-100.00,NNW,342,14.0,-999.0,87,-99.99,,,-99.99,,2013-03-06 01:21:00,
2013-03-05 19:32:00,18.0,15.0,-100.00,NNW,342,18.0,-999.0,87,-99.99,,,-99.99,,2013-03-06 01:32:00,
2013-03-05 19:42:00,18.0,15.0,-100.00,NNW,337,21.0,-999.0,87,-99.99,,,-99.99,,2013-03-06 01:42:00,
2013-03-05 19:51:00,18.0,15.0,-100.00,NNW,330,14.0,-999.0,86,-99.99,,,-99.99,,2013-03-06 01:51:00,
2013-03-05 20:01:00,18.0,15.0,-100.00,NNW,330,14.0,-999.0,86,-99.99,,,-99.99,,2013-03-06 02:01:00,
2013-03-05 20:11:00,18.0,15.0,-100.00,NNW,332,18.0,-999.0,86,-99.99,,,-99.99,,2013-03-06 02:11:00,
2013-03-05 20:22:00,18.0,15.0,-100.00,NNW,339,18.0,-999.0,86,-99.99,,,-99.99,,2013-03-06 02:22:00,
2013-03-05 20:32:00,18.0,15.0,-100.00,NNW,336,16.0,-999.0,86,-99.99,,,-99.99,,2013-03-06 02:32:00,
2013-03-05 20:42:00,18.0,15.0,-100.00,NNW,334,11.0,-999.0,86,-99.99,,,-99.99,,2013-03-06 02:42:00,
2013-03-05 20:52:00,18.0,15.0,-100.00,NNW,337,16.0,-999.0,87,-99.99,,,-99.99,,2013-03-06 02:52:00,
2013-03-05 21:02:00,18.0,15.0,-100.00,NNW,337,14.0,-999.0,87,-99.99,,,-99.99,,2013-03-06 03:02:00,
2013-03-05 21:11:00,18.0,14.0,-100.00,NNW,328,16.0,-999.0,86,-99.99,,,-99.99,,2013-03-06 03:11:00,
2013-03-05 21:22:00,18.0,15.0,-100.00,NNW,327,15.0,-999.0,87,-99.99,,,-99.99,,2013-03-06 03:22:00,
2013-03-05 21:32:00,18.0,14.0,-100.00,NNW,327,17.0,-999.0,87,-99.99,,,-99.99,,2013-03-06 03:32:00,
2013-03-05 21:42:00,17.0,14.0,-100.00,NW,324,14.0,-999.0,88,-99.99,,,-99.99,,2013-03-06 03:42:00,
2013-03-05 21:52:00,17.0,14.0,-100.00,NW,321,17.0,-999.0,88,-99.99,,,-99.99,,2013-03-06 03:52:00,
2013-03-05 22:02:00,17.0,14.0,-100.00,NW,314,15.0,-999.0,87,-99.99,,,-99.99,,2013-03-06 04:02:00,
2013-03-05 22:11:00,17.0,14.0,-100.00,NW,324,17.0,-999.0,87,-99.99,,,-99.99,,2013-03-06 04:11:00,
2013-03-05 22:21:00,17.0,14.0,-100.00,NW,315,17.0,-999.0,87,-99.99,,,-99.99,,2013-03-06 04:21:00,
2013-03-05 22:32:00,17.0,14.0,-100.00,NNW,329,17.0,-999.0,87,-99.99,,,-99.99,,2013-03-06 04:32:00,
2013-03-05 22:42:00,17.0,13.0,-100.00,NW,322,15.0,-999.0,86,-99.99,,,-99.99,,2013-03-06 04:42:00,
2013-03-05 22:52:00,17.0,13.0,-100.00,NW,317,16.0,-999.0,86,-99.99,,,-99.99,,2013-03-06 04:52:00,
2013-03-05 23:02:00,17.0,14.0,-100.00,NW,326,14.0,-999.0,87,-99.99,,,-99.99,,2013-03-06 05:02:00,
2013-03-05 23:11:00,17.0,14.0,-100.00,NNW,327,13.0,-999.0,87,-99.99,,,-99.99,,2013-03-06 05:11:00,
2013-03-05 23:22:00,17.0,14.0,-100.00,NNW,332,14.0,-999.0,87,-99.99,,,-99.99,,2013-03-06 05:22:00,
2013-03-05 23:32:00,17.0,14.0,-100.00,NNW,335,13.0,-999.0,87,-99.99,,,-99.99,,2013-03-06 05:32:00,
2013-03-05 23:42:00,17.0,13.0,-100.00,NNW,333,12.0,-999.0,86,-99.99,,,-99.99,,2013-03-06 05:42:00,
2013-03-05 23:52:00,17.0,14.0,-100.00,NW,315,12.0,-999.0,87,-99.99,,,-99.99,,2013-03-06 05:52:00,